Year,Month,Day,Hour,Minute,Value (Times are PST for temperature in C)
2011,04,22,00,00,8.10
2011,04,22,00,01,8.20
2011,04,22,00,02,8.20
2011,04,22,00,03,8.20
2011,04,22,00,04,8.20
2011,04,22,00,05,8.20
2011,04,22,00,06,8.20
2011,04,22,00,07,8.30
2011,04,22,00,08,8.30
2011,04,22,00,09,8.30
2011,04,22,00,10,8.30
2011,04,22,00,11,8.30
2011,04,22,00,12,8.30
2011,04,22,00,13,8.30
2011,04,22,00,14,8.30
2011,04,22,00,15,8.30
2011,04,22,00,16,8.30
2011,04,22,00,17,8.30
2011,04,22,00,18,8.30
2011,04,22,00,19,8.30
2011,04,22,00,20,8.20
2011,04,22,00,21,8.20
2011,04,22,00,22,8.20
2011,04,22,00,23,8.20
2011,04,22,00,24,8.20
2011,04,22,00,25,8.20
2011,04,22,00,26,8.20
2011,04,22,00,27,8.10
2011,04,22,00,28,8.10
2011,04,22,00,29,8.10
2011,04,22,00,30,8.10
2011,04,22,00,31,8.10
2011,04,22,00,32,8.10
2011,04,22,00,33,8.10
2011,04,22,00,34,8.10
2011,04,22,00,35,8.10
2011,04,22,00,36,8.10
2011,04,22,00,37,8.10
2011,04,22,00,38,8.10
2011,04,22,00,39,8.00
2011,04,22,00,40,8.00
2011,04,22,00,41,8.00
2011,04,22,00,42,8.00
2011,04,22,00,43,8.00
2011,04,22,00,44,8.00
2011,04,22,00,45,8.00
2011,04,22,00,46,8.00
2011,04,22,00,47,7.90
2011,04,22,00,48,7.90
2011,04,22,00,49,7.90
2011,04,22,00,50,7.90
2011,04,22,00,51,7.90
2011,04,22,00,52,7.90
2011,04,22,00,53,7.90
2011,04,22,00,54,7.90
2011,04,22,00,55,7.90
2011,04,22,00,56,7.90
2011,04,22,00,57,7.90
2011,04,22,00,58,7.90
2011,04,22,00,59,7.90
2011,04,22,01,00,7.90
2011,04,22,01,01,7.90
2011,04,22,01,02,7.90
2011,04,22,01,03,7.90
2011,04,22,01,04,7.90
2011,04,22,01,05,7.90
2011,04,22,01,06,7.90
2011,04,22,01,07,7.90
2011,04,22,01,08,7.80
2011,04,22,01,09,7.80
2011,04,22,01,10,7.80
2011,04,22,01,11,7.80
2011,04,22,01,12,7.80
2011,04,22,01,13,7.80
2011,04,22,01,14,7.80
2011,04,22,01,15,7.80
2011,04,22,01,18,7.80
2011,04,22,01,19,7.70
2011,04,22,01,20,7.70
2011,04,22,01,21,7.70
2011,04,22,01,22,7.70
2011,04,22,01,23,7.70
2011,04,22,01,24,7.70
2011,04,22,01,25,7.70
2011,04,22,01,26,7.70
2011,04,22,01,27,7.70
2011,04,22,01,28,7.70
2011,04,22,01,29,7.60
2011,04,22,01,30,7.60
2011,04,22,01,31,7.60
2011,04,22,01,32,7.60
2011,04,22,01,33,7.60
2011,04,22,01,34,7.50
2011,04,22,01,35,7.50
2011,04,22,01,36,7.40
2011,04,22,01,37,7.40
2011,04,22,01,38,7.40
2011,04,22,01,39,7.40
2011,04,22,01,40,7.30
2011,04,22,01,41,7.30
2011,04,22,01,42,7.20
2011,04,22,01,43,7.20
2011,04,22,01,44,7.20
2011,04,22,01,45,7.10
2011,04,22,01,46,7.10
2011,04,22,01,47,7.10
2011,04,22,01,48,7.10
2011,04,22,01,49,7.10
2011,04,22,01,50,7.00
2011,04,22,01,51,7.00
2011,04,22,01,52,7.00
2011,04,22,01,53,6.90
2011,04,22,01,54,6.90
2011,04,22,01,55,6.90
2011,04,22,01,56,6.80
2011,04,22,01,57,6.80
2011,04,22,01,58,6.80
2011,04,22,01,59,6.80
2011,04,22,02,02,6.70
2011,04,22,02,03,6.70
2011,04,22,02,04,6.60
2011,04,22,02,05,6.60
2011,04,22,02,06,6.60
2011,04,22,02,07,6.60
2011,04,22,02,08,6.50
2011,04,22,02,09,6.50
2011,04,22,02,10,6.50
2011,04,22,02,11,6.50
2011,04,22,02,12,6.50
2011,04,22,02,13,6.40
2011,04,22,02,14,6.40
2011,04,22,02,15,6.40
2011,04,22,02,16,6.40
2011,04,22,02,17,6.40
2011,04,22,02,18,6.30
2011,04,22,02,19,6.30
2011,04,22,02,20,6.30
2011,04,22,02,21,6.30
2011,04,22,02,22,6.30
2011,04,22,02,23,6.30
2011,04,22,02,24,6.30
2011,04,22,02,25,6.30
2011,04,22,02,26,6.30
2011,04,22,02,27,6.30
2011,04,22,02,28,6.20
2011,04,22,02,29,6.20
2011,04,22,02,30,6.10
2011,04,22,02,33,6.20
2011,04,22,02,34,6.20
2011,04,22,02,35,6.10
2011,04,22,02,36,6.10
2011,04,22,02,37,6.10
2011,04,22,02,38,6.10
2011,04,22,02,39,6.00
2011,04,22,02,40,6.00
2011,04,22,02,41,6.00
2011,04,22,02,42,5.90
2011,04,22,02,43,5.80
2011,04,22,02,44,5.70
2011,04,22,02,45,5.70
2011,04,22,02,46,5.70
2011,04,22,02,47,5.60
2011,04,22,02,48,5.60
2011,04,22,02,49,5.50
2011,04,22,02,50,5.50
2011,04,22,02,52,5.40
2011,04,22,02,53,5.40
2011,04,22,02,54,5.40
2011,04,22,02,57,5.40
2011,04,22,02,58,5.30
2011,04,22,02,59,5.30
2011,04,22,03,00,5.30
2011,04,22,03,01,5.20
2011,04,22,03,02,5.20
2011,04,22,03,03,5.20
2011,04,22,03,04,5.10
2011,04,22,03,05,5.00
2011,04,22,03,06,5.00
2011,04,22,03,07,4.90
2011,04,22,03,08,4.90
2011,04,22,03,09,4.80
2011,04,22,03,10,4.80
2011,04,22,03,11,4.80
2011,04,22,03,12,4.80
2011,04,22,03,13,4.80
2011,04,22,03,14,4.70
2011,04,22,03,15,4.70
2011,04,22,03,16,4.70
2011,04,22,03,17,4.70
2011,04,22,03,18,4.70
2011,04,22,03,19,4.70
2011,04,22,03,20,4.70
2011,04,22,03,21,4.70
2011,04,22,03,22,4.70
2011,04,22,03,23,4.70
2011,04,22,03,24,4.70
2011,04,22,03,25,4.70
2011,04,22,03,26,4.70
2011,04,22,03,27,4.70
2011,04,22,03,28,4.70
2011,04,22,03,29,4.60
2011,04,22,03,30,4.50
2011,04,22,03,31,4.50
2011,04,22,03,32,4.40
2011,04,22,03,33,4.40
2011,04,22,03,34,4.30
2011,04,22,03,35,4.30
2011,04,22,03,36,4.30
2011,04,22,03,37,4.30
2011,04,22,03,38,4.20
2011,04,22,03,39,4.20
2011,04,22,03,40,4.20
2011,04,22,03,41,4.20
2011,04,22,03,42,4.20
2011,04,22,03,43,4.20
2011,04,22,03,44,4.20
2011,04,22,03,45,4.10
2011,04,22,03,46,4.10
2011,04,22,03,47,4.10
2011,04,22,03,48,4.00
2011,04,22,03,49,3.90
2011,04,22,03,50,3.90
2011,04,22,03,51,3.90
2011,04,22,03,52,3.80
2011,04,22,03,53,3.80
2011,04,22,03,54,3.80
2011,04,22,03,55,3.80
2011,04,22,03,56,3.80
2011,04,22,03,57,3.80
2011,04,22,03,58,3.80
2011,04,22,03,59,3.80
2011,04,22,04,00,3.80
2011,04,22,04,01,3.80
2011,04,22,04,02,3.80
2011,04,22,04,03,3.80
2011,04,22,04,04,3.80
2011,04,22,04,05,3.80
2011,04,22,04,06,3.70
2011,04,22,04,07,3.70
2011,04,22,04,08,3.70
2011,04,22,04,09,3.70
2011,04,22,04,10,3.60
2011,04,22,04,11,3.60
2011,04,22,04,12,3.50
2011,04,22,04,13,3.50
2011,04,22,04,14,3.40
2011,04,22,04,15,3.40
2011,04,22,04,16,3.40
2011,04,22,04,17,3.40
2011,04,22,04,18,3.30
2011,04,22,04,19,3.30
2011,04,22,04,20,3.30
2011,04,22,04,21,3.30
2011,04,22,04,22,3.30
2011,04,22,04,23,3.20
2011,04,22,04,24,3.20
2011,04,22,04,25,3.20
2011,04,22,04,26,3.20
2011,04,22,04,27,3.20
2011,04,22,04,28,3.20
2011,04,22,04,29,3.10
2011,04,22,04,30,3.10
2011,04,22,04,33,3.10
2011,04,22,04,34,3.00
2011,04,22,04,35,3.00
2011,04,22,04,36,3.00
2011,04,22,04,37,3.00
2011,04,22,04,38,2.90
2011,04,22,04,39,2.90
2011,04,22,04,40,2.90
2011,04,22,04,41,2.90
2011,04,22,04,42,2.90
2011,04,22,04,43,2.90
2011,04,22,04,44,2.90
2011,04,22,04,45,2.80
2011,04,22,04,46,2.80
2011,04,22,04,47,2.80
2011,04,22,04,48,2.80
2011,04,22,04,49,2.80
2011,04,22,04,50,2.80
2011,04,22,04,51,2.80
2011,04,22,04,52,2.80
2011,04,22,04,53,2.80
2011,04,22,04,54,2.80
2011,04,22,04,55,2.80
2011,04,22,04,56,2.80
2011,04,22,04,57,2.80
2011,04,22,04,58,2.80
2011,04,22,04,59,2.90
2011,04,22,05,00,2.90
2011,04,22,05,01,2.90
2011,04,22,05,02,2.90
2011,04,22,05,03,2.90
2011,04,22,05,04,2.90
2011,04,22,05,05,2.90
2011,04,22,05,06,3.00
2011,04,22,05,07,3.00
2011,04,22,05,08,3.10
2011,04,22,05,09,3.10
2011,04,22,05,10,3.10
2011,04,22,05,11,3.10
2011,04,22,05,12,3.10
2011,04,22,05,13,3.10
2011,04,22,05,14,3.10
2011,04,22,05,15,3.10
2011,04,22,05,16,3.10
2011,04,22,05,17,3.10
2011,04,22,05,18,3.10
2011,04,22,05,19,3.20
2011,04,22,05,20,3.20
2011,04,22,05,21,3.20
2011,04,22,05,22,3.20
2011,04,22,05,23,3.20
2011,04,22,05,24,3.20
2011,04,22,05,25,3.20
2011,04,22,05,28,3.10
2011,04,22,05,29,3.10
2011,04,22,05,30,3.10
2011,04,22,05,31,3.10
2011,04,22,05,32,3.10
2011,04,22,05,33,3.10
2011,04,22,05,34,3.10
2011,04,22,05,35,3.10
2011,04,22,05,36,3.10
2011,04,22,05,37,3.10
2011,04,22,05,38,3.10
2011,04,22,05,39,3.10
2011,04,22,05,40,3.10
2011,04,22,05,41,3.10
2011,04,22,05,42,3.10
2011,04,22,05,43,3.10
2011,04,22,05,44,3.00
2011,04,22,05,45,3.00
2011,04,22,05,48,3.00
2011,04,22,05,49,3.00
2011,04,22,05,50,3.00
2011,04,22,05,51,3.00
2011,04,22,05,52,3.00
2011,04,22,05,53,3.00
2011,04,22,05,54,3.00
2011,04,22,05,55,3.00
2011,04,22,05,56,3.00
2011,04,22,05,57,3.00
2011,04,22,05,58,3.00
2011,04,22,05,59,2.90
2011,04,22,06,00,2.90
2011,04,22,06,01,2.90
2011,04,22,06,02,2.90
2011,04,22,06,03,2.90
2011,04,22,06,04,2.90
2011,04,22,06,05,2.90
2011,04,22,06,06,2.90
2011,04,22,06,07,2.90
2011,04,22,06,08,2.90
2011,04,22,06,09,2.90
2011,04,22,06,10,2.90
2011,04,22,06,11,2.90
2011,04,22,06,12,2.90
2011,04,22,06,13,2.90
2011,04,22,06,14,3.00
2011,04,22,06,15,3.00
2011,04,22,06,16,3.00
2011,04,22,06,17,3.00
2011,04,22,06,18,3.00
2011,04,22,06,19,3.10
2011,04,22,06,20,3.10
2011,04,22,06,21,3.10
2011,04,22,06,22,3.10
2011,04,22,06,23,3.10
2011,04,22,06,24,3.10
2011,04,22,06,25,3.10
2011,04,22,06,26,3.10
2011,04,22,06,27,3.10
2011,04,22,06,28,3.10
2011,04,22,06,29,3.20
2011,04,22,06,30,3.20
2011,04,22,06,31,3.20
2011,04,22,06,32,3.20
2011,04,22,06,33,3.20
2011,04,22,06,34,3.20
2011,04,22,06,35,3.30
2011,04,22,06,36,3.30
2011,04,22,06,37,3.30
2011,04,22,06,38,3.30
2011,04,22,06,39,3.40
2011,04,22,06,40,3.40
2011,04,22,06,41,3.40
2011,04,22,06,42,3.40
2011,04,22,06,43,3.40
2011,04,22,06,44,3.40
2011,04,22,06,45,3.50
2011,04,22,06,46,3.50
2011,04,22,06,47,3.50
2011,04,22,06,48,3.60
2011,04,22,06,49,3.60
2011,04,22,06,50,3.60
2011,04,22,06,51,3.60
2011,04,22,06,52,3.60
2011,04,22,06,53,3.60
2011,04,22,06,54,3.60
2011,04,22,06,55,3.70
2011,04,22,06,56,3.70
2011,04,22,06,57,3.70
2011,04,22,06,58,3.70
2011,04,22,06,59,3.70
2011,04,22,07,00,3.80
2011,04,22,07,01,3.80
2011,04,22,07,02,3.80
2011,04,22,07,03,3.80
2011,04,22,07,04,3.80
2011,04,22,07,05,3.80
2011,04,22,07,06,3.80
2011,04,22,07,07,3.80
2011,04,22,07,08,3.80
2011,04,22,07,09,3.80
2011,04,22,07,10,3.80
2011,04,22,07,11,3.80
2011,04,22,07,12,3.90
2011,04,22,07,13,3.90
2011,04,22,07,14,3.90
2011,04,22,07,15,3.90
2011,04,22,07,16,3.90
2011,04,22,07,17,3.90
2011,04,22,07,18,4.00
2011,04,22,07,19,4.00
2011,04,22,07,20,4.00
2011,04,22,07,21,4.10
2011,04,22,07,22,4.10
2011,04,22,07,23,4.10
2011,04,22,07,24,4.10
2011,04,22,07,25,4.20
2011,04,22,07,26,4.20
2011,04,22,07,27,4.20
2011,04,22,07,28,4.20
2011,04,22,07,29,4.30
2011,04,22,07,30,4.30
2011,04,22,07,31,4.30
2011,04,22,07,32,4.30
2011,04,22,07,33,4.40
2011,04,22,07,34,4.40
2011,04,22,07,35,4.40
2011,04,22,07,36,4.50
2011,04,22,07,37,4.50
2011,04,22,07,38,4.50
2011,04,22,07,40,4.60
2011,04,22,07,41,4.60
2011,04,22,07,42,4.60
2011,04,22,07,43,4.70
2011,04,22,07,44,4.70
2011,04,22,07,45,4.70
2011,04,22,07,46,4.70
2011,04,22,07,47,4.80
2011,04,22,07,48,4.80
2011,04,22,07,51,4.90
2011,04,22,07,52,4.90
2011,04,22,07,53,5.00
2011,04,22,07,54,5.00
2011,04,22,07,55,5.10
2011,04,22,07,56,5.10
2011,04,22,07,57,5.10
2011,04,22,07,58,5.10
2011,04,22,07,59,5.20
2011,04,22,08,00,5.20
2011,04,22,08,01,5.20
2011,04,22,08,04,5.30
2011,04,22,08,05,5.40
2011,04,22,08,06,5.40
2011,04,22,08,07,5.50
2011,04,22,08,08,5.50
2011,04,22,08,09,5.50
2011,04,22,08,10,5.60
2011,04,22,08,11,5.60
2011,04,22,08,12,5.70
2011,04,22,08,13,5.70
2011,04,22,08,14,5.80
2011,04,22,08,15,5.80
2011,04,22,08,16,5.90
2011,04,22,08,17,5.90
2011,04,22,08,18,6.00
2011,04,22,08,19,6.10
2011,04,22,08,20,6.10
2011,04,22,08,21,6.20
2011,04,22,08,22,6.30
2011,04,22,08,23,6.40
2011,04,22,08,24,6.40
2011,04,22,08,25,6.50
2011,04,22,08,26,6.60
2011,04,22,08,27,6.60
2011,04,22,08,28,6.70
2011,04,22,08,29,6.70
2011,04,22,08,30,6.80
2011,04,22,08,31,6.80
2011,04,22,08,32,6.90
2011,04,22,08,33,6.90
2011,04,22,08,34,7.00
2011,04,22,08,35,7.10
2011,04,22,08,36,7.20
2011,04,22,08,37,7.20
2011,04,22,08,38,7.30
2011,04,22,08,39,7.40
2011,04,22,08,40,7.40
2011,04,22,08,41,7.50
2011,04,22,08,42,7.50
2011,04,22,08,43,7.50
2011,04,22,08,44,7.60
2011,04,22,08,45,7.60
2011,04,22,08,46,7.70
2011,04,22,08,47,7.60
2011,04,22,08,48,7.60
2011,04,22,08,49,7.70
2011,04,22,08,50,7.70
2011,04,22,08,51,7.70
2011,04,22,08,52,7.80
2011,04,22,08,53,7.80
2011,04,22,08,54,7.80
2011,04,22,08,55,7.80
2011,04,22,08,56,7.80
2011,04,22,08,57,7.90
2011,04,22,08,58,7.90
2011,04,22,08,59,7.90
2011,04,22,09,00,8.00
2011,04,22,09,01,8.00
2011,04,22,09,02,8.00
2011,04,22,09,03,8.00
2011,04,22,09,04,8.00
2011,04,22,09,05,8.10
2011,04,22,09,06,8.20
2011,04,22,09,07,8.20
2011,04,22,09,08,8.20
2011,04,22,09,11,8.20
2011,04,22,09,12,8.20
2011,04,22,09,13,8.20
2011,04,22,09,14,8.20
2011,04,22,09,15,8.20
2011,04,22,09,16,8.20
2011,04,22,09,17,8.20
2011,04,22,09,18,8.20
2011,04,22,09,19,8.20
2011,04,22,09,20,8.20
2011,04,22,09,21,8.20
2011,04,22,09,22,8.30
2011,04,22,09,23,8.30
2011,04,22,09,24,8.40
2011,04,22,09,25,8.40
2011,04,22,09,26,8.50
2011,04,22,09,27,8.60
2011,04,22,09,28,8.70
2011,04,22,09,29,8.70
2011,04,22,09,30,8.70
2011,04,22,09,31,8.80
2011,04,22,09,32,8.80
2011,04,22,09,33,8.80
2011,04,22,09,34,8.90
2011,04,22,09,35,8.90
2011,04,22,09,36,9.00
2011,04,22,09,37,9.00
2011,04,22,09,38,9.00
2011,04,22,09,39,9.00
2011,04,22,09,40,8.90
2011,04,22,09,43,8.90
2011,04,22,09,44,8.90
2011,04,22,09,45,9.00
2011,04,22,09,46,9.00
2011,04,22,09,47,9.00
2011,04,22,09,48,9.00
2011,04,22,09,49,9.00
2011,04,22,09,50,9.00
2011,04,22,09,51,9.10
2011,04,22,09,52,9.10
2011,04,22,09,53,9.10
2011,04,22,09,54,9.10
2011,04,22,09,55,9.10
2011,04,22,09,56,9.20
2011,04,22,09,57,9.20
2011,04,22,09,58,9.20
2011,04,22,09,59,9.30
2011,04,22,10,00,9.30
2011,04,22,10,01,9.30
2011,04,22,10,02,9.30
2011,04,22,10,03,9.40
2011,04,22,10,04,9.50
2011,04,22,10,05,9.50
2011,04,22,10,06,9.50
2011,04,22,10,07,9.40
2011,04,22,10,08,9.40
2011,04,22,10,09,9.40
2011,04,22,10,10,9.40
2011,04,22,10,11,9.40
2011,04,22,10,12,9.40
2011,04,22,10,13,9.40
2011,04,22,10,14,9.40
2011,04,22,10,15,9.40
2011,04,22,10,16,9.40
2011,04,22,10,17,9.30
2011,04,22,10,18,9.30
2011,04,22,10,19,9.30
2011,04,22,10,20,9.30
2011,04,22,10,21,9.40
2011,04,22,10,22,9.50
2011,04,22,10,23,9.60
2011,04,22,10,24,9.70
2011,04,22,10,25,9.80
2011,04,22,10,26,9.80
2011,04,22,10,27,9.80
2011,04,22,10,28,9.80
2011,04,22,10,29,9.80
2011,04,22,10,30,9.70
2011,04,22,10,31,9.70
2011,04,22,10,32,9.70
2011,04,22,10,33,9.70
2011,04,22,10,34,9.60
2011,04,22,10,35,9.60
2011,04,22,10,36,9.60
2011,04,22,10,37,9.70
2011,04,22,10,38,9.70
2011,04,22,10,39,9.80
2011,04,22,10,40,9.90
2011,04,22,10,41,9.90
2011,04,22,10,42,9.90
2011,04,22,10,43,9.80
2011,04,22,10,44,9.70
2011,04,22,10,45,9.70
2011,04,22,10,46,9.70
2011,04,22,10,47,9.70
2011,04,22,10,48,9.70
2011,04,22,10,49,9.80
2011,04,22,10,50,9.80
2011,04,22,10,51,9.90
2011,04,22,10,52,9.80
2011,04,22,10,53,9.80
2011,04,22,10,54,9.70
2011,04,22,10,55,9.70
2011,04,22,10,56,9.80
2011,04,22,10,57,9.80
2011,04,22,10,58,9.80
2011,04,22,10,59,9.80
2011,04,22,11,00,10.00
2011,04,22,11,01,10.00
2011,04,22,11,02,9.80
2011,04,22,11,03,9.80
2011,04,22,11,04,9.90
2011,04,22,11,05,9.90
2011,04,22,11,06,9.90
2011,04,22,11,07,10.00
2011,04,22,11,08,10.10
2011,04,22,11,09,10.10
2011,04,22,11,10,10.20
2011,04,22,11,11,10.20
2011,04,22,11,12,10.20
2011,04,22,11,13,10.20
2011,04,22,11,14,10.30
2011,04,22,11,15,10.40
2011,04,22,11,16,10.50
2011,04,22,11,17,10.60
2011,04,22,11,18,10.50
2011,04,22,11,19,10.40
2011,04,22,11,20,10.20
2011,04,22,11,21,10.10
2011,04,22,11,22,9.90
2011,04,22,11,23,9.80
2011,04,22,11,24,9.80
2011,04,22,11,25,9.80
2011,04,22,11,26,9.80
2011,04,22,11,27,9.70
2011,04,22,11,28,9.70
2011,04,22,11,29,9.50
2011,04,22,11,30,9.50
2011,04,22,11,31,9.60
2011,04,22,11,32,9.80
2011,04,22,11,33,9.90
2011,04,22,11,34,9.90
2011,04,22,11,37,9.80
2011,04,22,11,38,9.70
2011,04,22,11,39,9.60
2011,04,22,11,40,9.60
2011,04,22,11,41,9.70
2011,04,22,11,42,9.80
2011,04,22,11,43,9.80
2011,04,22,11,44,9.90
2011,04,22,11,45,10.00
2011,04,22,11,46,9.90
2011,04,22,11,47,9.80
2011,04,22,11,50,9.80
2011,04,22,11,51,9.70
2011,04,22,11,52,9.70
2011,04,22,11,53,9.60
2011,04,22,11,54,9.60
2011,04,22,11,55,9.70
2011,04,22,11,56,9.80
2011,04,22,11,57,9.90
2011,04,22,11,58,9.90
2011,04,22,11,59,9.90
2011,04,22,12,00,9.90
2011,04,22,12,01,10.00
2011,04,22,12,02,10.20
2011,04,22,12,03,10.30
2011,04,22,12,04,10.40
2011,04,22,12,05,10.50
2011,04,22,12,06,10.70
2011,04,22,12,09,10.60
2011,04,22,12,10,10.50
2011,04,22,12,11,10.50
2011,04,22,12,12,10.50
2011,04,22,12,13,10.60
2011,04,22,12,14,10.40
2011,04,22,12,15,10.20
2011,04,22,12,16,10.10
2011,04,22,12,17,10.00
2011,04,22,12,18,9.90
2011,04,22,12,19,9.80
2011,04,22,12,20,9.80
2011,04,22,12,21,9.90
2011,04,22,12,22,10.00
2011,04,22,12,23,10.10
2011,04,22,12,24,10.20
2011,04,22,12,25,10.20
2011,04,22,12,26,10.30
2011,04,22,12,27,10.30
2011,04,22,12,28,10.40
2011,04,22,12,29,10.60
2011,04,22,12,30,10.60
2011,04,22,12,31,10.60
2011,04,22,12,32,10.50
2011,04,22,12,33,10.30
2011,04,22,12,34,10.30
2011,04,22,12,35,10.30
2011,04,22,12,36,10.20
2011,04,22,12,37,10.00
2011,04,22,12,38,9.90
2011,04,22,12,39,9.90
2011,04,22,12,40,9.80
2011,04,22,12,41,9.80
2011,04,22,12,42,10.00
2011,04,22,12,43,10.20
2011,04,22,12,44,10.30
2011,04,22,12,45,10.40
2011,04,22,12,46,10.40
2011,04,22,12,47,10.40
2011,04,22,12,48,10.40
2011,04,22,12,49,10.40
2011,04,22,12,50,10.30
2011,04,22,12,51,10.10
2011,04,22,12,52,10.00
2011,04,22,12,53,9.90
2011,04,22,12,54,9.90
2011,04,22,12,55,10.00
2011,04,22,12,56,10.10
2011,04,22,12,57,10.00
2011,04,22,12,58,9.90
2011,04,22,12,59,10.00
2011,04,22,13,00,10.10
2011,04,22,13,01,10.30
2011,04,22,13,02,10.50
2011,04,22,13,03,10.60
2011,04,22,13,04,10.80
2011,04,22,13,05,11.00
2011,04,22,13,06,11.10
2011,04,22,13,07,11.10
2011,04,22,13,08,11.10
2011,04,22,13,09,11.20
2011,04,22,13,10,11.20
2011,04,22,13,11,11.30
2011,04,22,13,12,11.20
2011,04,22,13,13,11.30
2011,04,22,13,14,11.30
2011,04,22,13,15,11.30
2011,04,22,13,16,11.30
2011,04,22,13,17,11.40
2011,04,22,13,18,11.50
2011,04,22,13,19,11.50
2011,04,22,13,20,11.60
2011,04,22,13,21,11.60
2011,04,22,13,22,11.60
2011,04,22,13,23,11.60
2011,04,22,13,24,11.60
2011,04,22,13,25,11.70
2011,04,22,13,26,11.70
2011,04,22,13,27,11.80
2011,04,22,13,28,11.90
2011,04,22,13,29,11.90
2011,04,22,13,30,12.00
2011,04,22,13,31,12.00
2011,04,22,13,32,12.00
2011,04,22,13,33,12.00
2011,04,22,13,34,11.80
2011,04,22,13,35,11.70
2011,04,22,13,36,11.60
2011,04,22,13,37,11.50
2011,04,22,13,38,11.50
2011,04,22,13,39,11.40
2011,04,22,13,40,11.40
2011,04,22,13,41,11.40
2011,04,22,13,42,11.40
2011,04,22,13,43,11.30
2011,04,22,13,44,11.10
2011,04,22,13,45,10.90
2011,04,22,13,46,10.90
2011,04,22,13,47,11.10
2011,04,22,13,48,11.20
2011,04,22,13,49,11.30
2011,04,22,13,50,11.30
2011,04,22,13,51,11.20
2011,04,22,13,52,11.30
2011,04,22,13,53,11.20
2011,04,22,13,54,11.10
2011,04,22,13,55,11.10
2011,04,22,13,56,11.00
2011,04,22,13,57,11.00
2011,04,22,13,58,11.00
2011,04,22,13,59,11.10
2011,04,22,14,00,11.20
2011,04,22,14,01,11.20
2011,04,22,14,02,11.30
2011,04,22,14,03,11.40
2011,04,22,14,04,11.50
2011,04,22,14,05,11.60
2011,04,22,14,06,11.70
2011,04,22,14,07,11.80
2011,04,22,14,08,11.70
2011,04,22,14,09,11.50
2011,04,22,14,10,11.30
2011,04,22,14,11,11.30
2011,04,22,14,12,11.30
2011,04,22,14,13,11.30
2011,04,22,14,14,11.50
2011,04,22,14,15,11.70
2011,04,22,14,16,11.90
2011,04,22,14,17,12.10
2011,04,22,14,18,12.30
2011,04,22,14,19,12.40
2011,04,22,14,20,12.60
2011,04,22,14,21,12.70
2011,04,22,14,22,12.70
2011,04,22,14,23,12.70
2011,04,22,14,24,12.70
2011,04,22,14,25,12.70
2011,04,22,14,26,12.60
2011,04,22,14,27,12.60
2011,04,22,14,28,12.60
2011,04,22,14,29,12.50
2011,04,22,14,30,12.30
2011,04,22,14,31,12.00
2011,04,22,14,32,11.80
2011,04,22,14,33,11.70
2011,04,22,14,34,11.60
2011,04,22,14,35,11.50
2011,04,22,14,36,11.50
2011,04,22,14,37,11.40
2011,04,22,14,38,11.50
2011,04,22,14,39,11.50
2011,04,22,14,40,11.60
2011,04,22,14,41,11.60
2011,04,22,14,42,11.60
2011,04,22,14,43,11.50
2011,04,22,14,44,11.50
2011,04,22,14,45,11.50
2011,04,22,14,46,11.60
2011,04,22,14,47,11.60
2011,04,22,14,48,11.70
2011,04,22,14,49,11.70
2011,04,22,14,50,11.70
2011,04,22,14,51,11.60
2011,04,22,14,52,11.50
2011,04,22,14,53,11.50
2011,04,22,14,54,11.60
2011,04,22,14,55,11.70
2011,04,22,14,56,11.80
2011,04,22,14,57,11.80
2011,04,22,14,58,11.70
2011,04,22,14,59,11.70
2011,04,22,15,00,11.60
2011,04,22,15,01,11.50
2011,04,22,15,02,11.60
2011,04,22,15,03,11.60
2011,04,22,15,04,11.60
2011,04,22,15,05,11.80
2011,04,22,15,06,11.90
2011,04,22,15,07,12.10
2011,04,22,15,08,12.20
2011,04,22,15,09,12.40
2011,04,22,15,10,12.60
2011,04,22,15,11,12.70
2011,04,22,15,12,12.80
2011,04,22,15,13,12.80
2011,04,22,15,14,12.90
2011,04,22,15,15,12.90
2011,04,22,15,16,12.80
2011,04,22,15,17,12.80
2011,04,22,15,18,12.60
2011,04,22,15,19,12.40
2011,04,22,15,20,12.40
2011,04,22,15,21,12.50
2011,04,22,15,22,12.60
2011,04,22,15,23,12.70
2011,04,22,15,24,12.70
2011,04,22,15,25,12.80
2011,04,22,15,26,12.80
2011,04,22,15,27,12.80
2011,04,22,15,28,12.90
2011,04,22,15,29,12.90
2011,04,22,15,30,12.90
2011,04,22,15,31,12.90
2011,04,22,15,32,12.90
2011,04,22,15,33,12.90
2011,04,22,15,34,13.00
2011,04,22,15,35,12.90
2011,04,22,15,36,12.90
2011,04,22,15,37,12.90
2011,04,22,15,38,12.90
2011,04,22,15,39,13.00
2011,04,22,15,40,13.10
2011,04,22,15,41,13.20
2011,04,22,15,42,13.20
2011,04,22,15,43,13.20
2011,04,22,15,44,13.10
2011,04,22,15,45,13.10
2011,04,22,15,46,13.10
2011,04,22,15,47,13.10
2011,04,22,15,48,13.10
2011,04,22,15,49,13.10
2011,04,22,15,50,13.10
2011,04,22,15,51,13.20
2011,04,22,15,52,13.20
2011,04,22,15,53,13.20
2011,04,22,15,54,13.10
2011,04,22,15,55,13.00
2011,04,22,15,56,12.90
2011,04,22,15,57,12.80
2011,04,22,15,58,12.80
2011,04,22,15,59,12.70
2011,04,22,16,00,12.60
2011,04,22,16,01,12.60
2011,04,22,16,02,12.70
2011,04,22,16,03,12.70
2011,04,22,16,04,12.70
2011,04,22,16,05,12.80
2011,04,22,16,06,13.00
2011,04,22,16,07,13.00
2011,04,22,16,08,13.10
2011,04,22,16,09,13.10
2011,04,22,16,10,13.10
2011,04,22,16,11,13.00
2011,04,22,16,12,13.10
2011,04,22,16,13,13.20
2011,04,22,16,14,13.20
2011,04,22,16,15,13.30
2011,04,22,16,16,13.30
2011,04,22,16,17,13.20
2011,04,22,16,18,13.20
2011,04,22,16,19,13.10
2011,04,22,16,20,13.00
2011,04,22,16,21,12.90
2011,04,22,16,22,12.90
2011,04,22,16,23,12.90
2011,04,22,16,24,12.80
2011,04,22,16,25,12.80
2011,04,22,16,26,12.80
2011,04,22,16,27,12.70
2011,04,22,16,28,12.70
2011,04,22,16,29,12.70
2011,04,22,16,30,12.80
2011,04,22,16,31,12.80
2011,04,22,16,32,12.90
2011,04,22,16,33,13.00
2011,04,22,16,34,13.10
2011,04,22,16,35,13.10
2011,04,22,16,36,13.20
2011,04,22,16,37,13.20
2011,04,22,16,38,13.10
2011,04,22,16,39,13.00
2011,04,22,16,40,13.00
2011,04,22,16,41,13.10
2011,04,22,16,42,13.00
2011,04,22,16,43,12.90
2011,04,22,16,44,12.90
2011,04,22,16,45,12.90
2011,04,22,16,46,12.90
2011,04,22,16,47,12.80
2011,04,22,16,48,12.80
2011,04,22,16,49,12.80
2011,04,22,16,50,12.80
2011,04,22,16,51,12.70
2011,04,22,16,52,12.70
2011,04,22,16,53,12.70
2011,04,22,16,54,12.60
2011,04,22,16,55,12.60
2011,04,22,16,56,12.60
2011,04,22,16,57,12.60
2011,04,22,16,58,12.70
2011,04,22,16,59,12.80
2011,04,22,17,00,12.80
2011,04,22,17,01,12.90
2011,04,22,17,02,12.90
2011,04,22,17,03,13.00
2011,04,22,17,04,12.90
2011,04,22,17,05,12.90
2011,04,22,17,06,12.80
2011,04,22,17,07,12.80
2011,04,22,17,08,12.80
2011,04,22,17,09,12.80
2011,04,22,17,10,12.80
2011,04,22,17,11,12.80
2011,04,22,17,12,12.80
2011,04,22,17,13,12.80
2011,04,22,17,14,12.80
2011,04,22,17,15,12.80
2011,04,22,17,16,12.80
2011,04,22,17,17,12.80
2011,04,22,17,18,12.80
2011,04,22,17,19,12.80
2011,04,22,17,20,12.80
2011,04,22,17,21,12.80
2011,04,22,17,22,12.70
2011,04,22,17,23,12.60
2011,04,22,17,24,12.60
2011,04,22,17,25,12.60
2011,04,22,17,26,12.60
2011,04,22,17,27,12.60
2011,04,22,17,28,12.60
2011,04,22,17,29,12.60
2011,04,22,17,30,12.70
2011,04,22,17,31,12.70
2011,04,22,17,32,12.70
2011,04,22,17,33,12.70
2011,04,22,17,34,12.70
2011,04,22,17,35,12.70
2011,04,22,17,36,12.60
2011,04,22,17,37,12.60
2011,04,22,17,38,12.50
2011,04,22,17,39,12.40
2011,04,22,17,40,12.30
2011,04,22,17,41,12.30
2011,04,22,17,42,12.30
2011,04,22,17,43,12.30
2011,04,22,17,44,12.30
2011,04,22,17,45,12.30
2011,04,22,17,46,12.30
2011,04,22,17,47,12.40
2011,04,22,17,48,12.40
2011,04,22,17,49,12.40
2011,04,22,17,50,12.30
2011,04,22,17,51,12.30
2011,04,22,17,52,12.30
2011,04,22,17,53,12.30
2011,04,22,17,54,12.30
2011,04,22,17,55,12.30
2011,04,22,17,56,12.30
2011,04,22,17,57,12.30
2011,04,22,17,58,12.40
2011,04,22,17,59,12.40
2011,04,22,18,00,12.40
2011,04,22,18,01,12.40
2011,04,22,18,02,12.40
2011,04,22,18,03,12.50
2011,04,22,18,04,12.60
2011,04,22,18,05,12.60
2011,04,22,18,06,12.60
2011,04,22,18,07,12.60
2011,04,22,18,08,12.60
2011,04,22,18,09,12.60
2011,04,22,18,10,12.60
2011,04,22,18,11,12.50
2011,04,22,18,12,12.30
2011,04,22,18,13,12.10
2011,04,22,18,14,11.90
2011,04,22,18,15,11.90
2011,04,22,18,16,11.90
2011,04,22,18,17,11.90
2011,04,22,18,18,11.90
2011,04,22,18,19,11.80